{"data":{"norad_id":48443,"intl_designator":"2021-040R","name":"STARLINK-2663","alt_names":[],"object_type":"PAYLOAD","status":"ACTIVE","operator":null,"country":"US","launch_date":"2021-05-09","launch_site_code":"AFETR","launch_vehicle":null,"mission":null,"orbit_class":"UNKNOWN","rcs_meters":null,"size_class":null,"mass_kg":null,"dimensions":null,"purposes":["comms"],"wikipedia_slug":null,"has_3d_model":false,"image_url":null,"decayed_at":null,"tle_current":{"epoch":"2026-09-19T22:15:11.843424Z","epoch_age_seconds":86776,"freshness":"FRESH","line1":"1 48443U 21040R   26262.92722041  .00000575  00000+0  30296-4 0  9995","line2":"2 48443  53.1604 354.1445 0001555  74.4972 285.6201 15.31707676296441","mean_motion":15.31707676,"eccentricity":0.0001555,"inclination_deg":53.1604,"raan_deg":354.1445,"arg_perigee_deg":74.4972,"mean_anomaly_deg":285.6201,"bstar":3.0296e-5,"rev_number":29644,"period_min":94.012716823389,"perigee_km":469.65211674997,"apogee_km":471.78211037929,"semimajor_km":6848.8541135646,"source":"CELESTRAK","updated_at":"2026-09-20T09:00:39.125809Z"}}}